Regional Weather Roundup
Issued by NWS

Home | Current Version | Previous Version | Text Only | Print | Product List | Glossary On
Versions: 1 2 3 4 5 6 7 8 9 10 11 12 13 14 15 16 17 18 19 20 21 22 23 24 25 26 27 28 29 30 31 32 33 34 35 36 37 38 39 40 41 42 43 44 45 46 47 48 49
000
ASUS43 KDMX 051307
RWRIA

WEATHER ROUNDUP FOR IOWA
NATIONAL WEATHER SERVICE DES MOINES IA
800 AM CDT WED AUG 05 2015

NOTE: "FAIR" INDICATES FEW OR NO CLOUDS BELOW 12,000 FEET WITH NO
SIGNIFICANT WEATHER AND/OR OBSTRUCTIONS TO VISIBILITY.

* - THESE STATIONS ARE NOT NWS STATIONS...THUS NOT UNDER NWS
QUALITY CONTROL.  THEY ALSO DO NOT REPORT WEATHER SUCH
AS PRECIPITATION OR FOG.

IAZ001>003-012>014-020>022-031>034-043>046-051400-
   NORTHWEST IOWA

CITY           SKY/WX    TMP DP  RH WIND       PRES   REMARKS
CARROLL *      CLOUDY    68  66  94 E7        30.02S
CHEROKEE *     CLOUDY    64  61  88 CALM      30.03R
DENISON *      CLOUDY    68  66  94 E6        30.00S
LE MARS *      CLOUDY    68  63  83 VRB6      30.02S
ORANGE CITY *  MOSUNNY   61  55  82 E5        30.02S
SHELDON *      SUNNY     61  57  88 E8        30.02S
SIOUX CITY     CLOUDY    69  62  78 E6        30.00R
SPENCER        MOSUNNY   61  55  81 E5        30.05S
STORM LAKE *   CLOUDY    64  61  88 E5        30.04S
$$

IAZ055>058-069>071-079>083-090>094-051400-
   SOUTHWEST IOWA

CITY           SKY/WX    TMP DP  RH WIND       PRES   REMARKS
ATLANTIC *     MOSUNNY   70  68  94 E3        29.99S
AUDUBON *      CLOUDY    68  64  88 CALM      30.03R
CLARINDA *     SUNNY     70  70 100 CALM      29.99F
COUNCIL BLFS * MOSUNNY   66  66 100 E3        29.99R FOG
CRESTON *      FOG       68  66  94 E6        30.02R VSB 0
HARLAN  *      CLOUDY    68  68 100 NE6       30.04R FOG
LAMONI         PTSUNNY   69  66  90 E5        30.00S
RED OAK *      SUNNY     68  68 100 SW3       29.98S
SHENANDOAH *   SUNNY     70  68  94 SE5       29.98R
$$

IAZ047>049-059>061-072>074-084-051400-
   CENTRAL IOWA

CITY           SKY/WX    TMP DP  RH WIND       PRES   REMARKS
AMES           CLOUDY    66  64  93 E5        30.03R
ANKENY *       CLOUDY    68  64  88 SE5       30.02S
CHARITON *     CLOUDY    68  64  88 E5        30.02S
DES MOINES     CLOUDY    70  63  78 SE7       30.01S
GRINNELL*      CLOUDY    66  63  88 E5        30.04S
KNOXVILLE *    CLOUDY    68  63  83 E5        30.02S
MARSHALLTOWN   SUNNY     65  59  81 SE6       30.04R
PELLA *        PTSUNNY   68  66  94 CALM      30.04R
PERRY *        CLOUDY    70  66  88 E7        30.03R
$$

IAZ004>006-015-016-023>025-035-036-051400-
   NORTH CENTRAL IOWA

CITY           SKY/WX    TMP DP  RH WIND       PRES   REMARKS
ALGONA *       SUNNY     64  57  77 SE3       30.06R
CLARION *      SUNNY     64  57  77 E5        30.05R
ESTHERVILLE    PTSUNNY   60  56  86 CALM      30.05S
FORT DODGE *   MOSUNNY   63  55  77 E3        30.06R
MASON CITY     MOSUNNY   61  57  87 CALM      30.07S
FOREST CITY *  SUNNY     61  55  82 CALM      30.06R
IOWA FALLS *     N/A     64  57  77 CALM      30.06R
$$

IAZ007>011-017>019-026>030-037>042-050>054-066-051400-
   NORTHEAST IOWA

CITY           SKY/WX    TMP DP  RH WIND       PRES   REMARKS
CEDAR RAPIDS   SUNNY     65  61  87 SE3       30.04R
CHARLES CITY * SUNNY     61  57  88 E5        30.06S
CLINTON *      SUNNY     64  63  94 E7        30.07R
DECORAH *      SUNNY     63  59  88 CALM      30.05F
DUBUQUE        SUNNY     65  59  81 NE7       30.05S
MONTICELLO *   SUNNY     61  57  88 CALM      30.05R
OELWEIN *        N/A     61  57  88 NE6       30.06R
WATERLOO       SUNNY     63  57  81 CALM      30.04R
$$

IAZ064-065-067-068-078-051400-
   EAST CENTRAL IOWA

CITY           SKY/WX    TMP DP  RH WIND       PRES   REMARKS
DAVENPORT      SUNNY     66  59  78 E7        30.04S
IOWA CITY      SUNNY     69  57  65 E3        30.04R
MT. PLEASANT * MOSUNNY   70  64  83 CALM      30.04R
MUSCATINE *    SUNNY     70  63  78 E5        30.04R
QUAD CITIES    MOSUNNY   68  60  75 E5        30.03S
$$

IAZ062-063-075>077-085>089-095>099-051400-
   SOUTHEAST IOWA

CITY           SKY/WX    TMP DP  RH WIND       PRES   REMARKS
BURLINGTON     MOSUNNY   69  64  84 E5        30.03R
FAIRFIELD *    MOSUNNY   68  63  83 E5        30.03R
FORT MADISON * MOSUNNY   66  64  94 CALM      30.04R
KEOKUK *       SUNNY     70  64  83 E8        30.02R
OSKALOOSA *    CLOUDY    68  63  83 E3        30.03S
CENTERVILLE *  MOSUNNY   68  64  88 E6        30.03S
OTTUMWA        MOSUNNY   68  64  87 E7        30.01R
WASHINGTON *   MOSUNNY   68  66  94 CALM      30.05R
$$

ABBREVIATIONS USED IN REMARKS
   TC - TEMPERATURES IN CELSIUS
  WCI - WIND CHILL INDEX
   HX - HEAT INDEX
  VSB - VISIBILITY
$$



USA.gov is the U.S. government's official web portal to all federal, state and local government web resources and services.